Flag for Germany Weather past 2 weeks in Bad Hersfeld, Hesse, Germany

Now
75 °F

Passing clouds.


Feels Like: 78 °F
Forecast: 55 / 83 °F
Wind: 5 mph from Northeast

Location: Fritzlar Airport

Current Time: Jun 30, 2015 at 2:45:02 PM

Latest Report: Jun 30, 2015 at 1:20 PM


Visibility: N/A

Pressure: 30.18 "Hg

Humidity: 41%

Dew point: 50 °F

Location of Bad HersfeldLocation

Historic Weather in Bad Hersfeld — Graph

°F

Bad Hersfeld temperature yesterday

Maximum temperature yesterday: 79 °F (at 3:20 PM)
Minimum temperature yesterday: 57 °F (at 4:20 AM)
Average temperature yesterday: 68 °F

Past Weeks' High & Low Weather Summary

 TemperatureHumidityPressure
High79 °F (Jun 26, 3:20 PM)100% (Jun 18, 9:00 AM)30.30 "Hg (Jun 18, 9:00 AM)
Low41 °F (Jun 17, 5:20 AM)35% (Jun 17, 5:00 PM)29.65 "Hg (Jun 22, 11:20 PM)
Average59 °F71%30.07 "Hg
* Reported Jun 15 1:20 PM — Jun 30 1:20 PM, Bad Hersfeld, Weather by CustomWeather, © 2015

Note: Actual official high and low records may vary slightly from our data, if they occured in-between our weather recording intervals... More about our weather records

Advertising

Bad Hersfeld weather history for previous 24 hours

 ConditionsComfort  
Time TempWeatherWind HumidityBarometerVisibility
1:20 PM
Tue, Jun 30
75 °FPassing clouds.5 mph41%30.18 "HgN/A
12:20 PM75 °FPassing clouds.5 mph44%30.18 "HgN/A
11:20 AM73 °FPassing clouds.3 mph50%30.18 "HgN/A
10:20 AM70 °FPassing clouds.2 mph60%30.21 "HgN/A
9:20 AM66 °FPassing clouds.3 mph64%30.21 "HgN/A
8:20 AM63 °FPassing clouds.2 mph77%30.21 "HgN/A
7:20 AM57 °FPassing clouds.5 mph82%30.21 "HgN/A
6:20 AM54 °FScattered clouds.3 mph94%30.18 "HgN/A
5:20 AM54 °FPassing clouds.5 mph88%30.18 "HgN/A
4:20 AM55 °FPartly cloudy.5 mph88%30.18 "HgN/A
3:20 AM57 °FPartly cloudy.5 mph82%30.18 "HgN/A
2:20 AM55 °FPartly cloudy.5 mph88%30.18 "HgN/A
1:20 AM57 °FPassing clouds.6 mph82%30.18 "HgN/A
12:20 AM55 °FPassing clouds.2 mph88%30.18 "HgN/A
11:20 PM
Mon, Jun 29
57 °FPassing clouds.3 mph88%30.18 "HgN/A
10:20 PM64 °FPartly sunny.3 mph68%30.18 "HgN/A
9:20 PM72 °FPartly sunny.6 mph47%30.15 "HgN/A
8:20 PM73 °FPartly sunny.8 mph47%30.15 "HgN/A
7:20 PM75 °FPartly sunny.9 mph47%30.12 "HgN/A
6:20 PM75 °FScattered clouds.10 mph47%30.12 "HgN/A
5:20 PM79 °FScattered clouds.10 mph45%30.12 "HgN/A
4:20 PM77 °FScattered clouds.7 mph44%30.09 "HgN/A
3:20 PM79 °FScattered clouds.3 mph42%30.09 "HgN/A
2:20 PM77 °FBroken clouds.6 mph47%30.12 "HgN/A
Weather by CustomWeather, © 2015

See weather overviewHow to use our weather pages